This is the latest recevied weather packets stored in our database for station/object HG6IEP-10. If no packets are shown the sender has not sent any weather packets the latest 10 day(s).
| Time | Temp. | Humidity | Pressure | Rain* | Wind** | Luminosity | Snow |
|---|---|---|---|---|---|---|---|
| 1777533726 | 12.78° C | 31% | 1004 hPa | - | - | - | - |
| 1777530122 | 7.78° C | 35% | 1005 hPa | - | - | - | - |
| 1777526518 | 3.33° C | 40% | 1005 hPa | - | - | - | - |
| 1777522914 | 1.67° C | 42% | 1005 hPa | - | - | - | - |
| 1777519310 | 2.22° C | 42% | 1004 hPa | - | - | - | - |
| 1777515706 | 3.89° C | 42% | 1004 hPa | - | - | - | - |
| 1777512102 | 6.11° C | 40% | 1004 hPa | - | - | - | - |
| 1777508498 | 7.78° C | 38% | 1003 hPa | - | - | - | - |
| 1777504894 | 9.44° C | 38% | 1003 hPa | - | - | - | - |
| 1777501290 | 10.56° C | 37% | 1003 hPa | - | - | - | - |
| 1777497686 | 12.78° C | 36% | 1002 hPa | - | - | - | - |
| 1777494082 | 13.89° C | 36% | 1001 hPa | - | - | - | - |
| 1777490478 | 15.56° C | 36% | 1001 hPa | - | - | - | - |
| 1777486874 | 17.78° C | 34% | 1000 hPa | - | - | - | - |
| 1777483270 | 20° C | 33% | 999 hPa | - | - | - | - |
| 1777479666 | 23.89° C | 31% | 998 hPa | - | - | - | - |
| 1777476062 | 28.33° C | 26% | 998 hPa | - | - | - | - |
| 1777472458 | 35° C | 21% | 997 hPa | - | - | - | - |
| 1777468854 | 33.33° C | 21% | 997 hPa | - | - | - | - |
| 1777465250 | 31.67° C | 21% | 997 hPa | - | - | - | - |
| 1777461646 | 29.44° C | 23% | 998 hPa | - | - | - | - |
| 1777458042 | 26.67° C | 26% | 998 hPa | - | - | - | - |
| 1777454438 | 22.78° C | 28% | 999 hPa | - | - | - | - |
| 1777450834 | 19.44° C | 29% | 999 hPa | - | - | - | - |
| 1777447230 | 16.11° C | 32% | 999 hPa | - | - | - | - |
* Rain since midnight (hover to see other rain measurements)
** Current wind speed in m/s (hover to see current wind gust speed)